Regional Weather Roundup
Issued by NWS

Home | Current Version | Previous Version | Text Only | Print | Product List | Glossary Off
Versions: 1 2 3 4 5 6 7 8 9 10 11 12 13 14 15 16 17 18 19 20 21 22 23 24 25 26 27 28 29 30 31 32 33 34 35 36 37 38 39 40 41 42 43 44 45 46 47 48 49 50

000
ASUS45 KSLC 251310
RWRUT

UTAH REGIONAL WEATHER ROUNDUP
NATIONAL WEATHER SERVICE SALT LAKE CITY UT
700 AM MDT SUN JUN 25 2017

UTZ001>011-023>025-251400-

NORTHERN UTAH

CITY           SKY/WX    TMP DP  RH WIND       PRES   REMARKS
BRIGHAM CITY   CLEAR     57  42  55 N5        30.21R
HILL AFB       CLEAR     61  38  42 SE23G29   30.21S
LOGAN          SUNNY     54  46  74 CALM      30.25R
OGDEN          CLEAR     63  40  42 SW5       30.19R
SALT LAKE CITY CLEAR     67  41  38 CALM      30.17S
TOOELE VALLEY  CLEAR     61  34  36 S8        30.19R
WENDOVER         N/A     67  38  34 CALM      30.19R
HEBER CITY     CLEAR     48  37  66 CALM      30.31R
WEST JORDAN    CLEAR     66  45  46 NW5       30.21R

$$

UTZ011>015-024>027-251400-

CENTRAL/NORTHEAST UTAH

CITY           SKY/WX    TMP DP  RH WIND       PRES   REMARKS
PROVO AIRPORT  CLEAR     59  40  49 S5        30.22R
MOAB/CANYONLAN SUNNY     68  23  18 S3        30.14R
DELTA          PTCLDY    54  30  40 S3        30.21R
PRICE          MOSUNNY   62  29  28 W5        30.26R
VERNAL         SUNNY     62  40  44 CALM      30.26R

$$

UTZ013>016-019>022-027-251400-

SOUTHERN UTAH

CITY           SKY/WX    TMP DP  RH WIND       PRES   REMARKS
BRYCE CANYON   PTCLDY    45  25  45 W9        30.39R
CEDAR CITY     PTCLDY    58  24  27 CALM      30.23R
MILFORD        CLEAR     54  21  27 CALM      30.21R
ST GEORGE      SUNNY     84  23  10 NE18      29.96F
HANKSVILLE     CLEAR     61  19  20 CALM      30.18R
BLANDING       MOSUNNY   64  25  23 E3        30.32R

$$

REGIONAL REPORTS     COLORADO/ARIZONA

CITY           SKY/WX    TMP DP  RH WIND       PRES   REMARKS
CRAIG, CO      SUNNY     46  36  68 CALM      30.36R
GRAND JUNCTION SUNNY     66  31  27 SE14      30.21R
RIFLE, CO      SUNNY     54  28  36 E3        30.31R
MONTROSE, CO   CLOUDY    56  35  45 S6        30.30R
CORTEZ, CO     CLOUDY    48  32  53 CALM      30.28R
COLORADO CITY    N/A     68  30  24 W7        30.18R
PAGE, AZ       PTCLDY    75  27  17 CALM      30.09R
GRAND CANYON   MOCLDY    70  22  16 SW7       30.30R
KINGMAN, AZ    PTCLDY    77  31  18 SE7       29.98R
FLAGSTAFF, AZ  MOCLDY    70  35  27 SW13      30.31R

$$

REGIONAL REPORTS    NEVADA/IDAHO/WYOMING

CITY           SKY/WX    TMP DP  RH WIND       PRES   REMARKS
LAS VEGAS, NV  MOCLDY    93  20   7 E8        29.88R
ELY, NY        PTCLDY    45  23  42 S12       30.32R
ELKO, NV       PTCLDY    51  38  60 CALM      30.24R
POCATELLO, ID  CLEAR     50  45  83 CALM      30.26R
BURLEY, ID     CLEAR     51  41  68 CALM      30.20S
FORT BRIDGER,    N/A     51  33  51 N3        30.44R
EVANSTON, WY   CLOUDY    52  34  50 E8        30.41R
ROCK SPRINGS,  SUNNY     51  31  46 E14       30.40R
KEMMERER, WY     N/A     52  32  46 N9        30.43S

$$



USA.gov is the U.S. government's official web portal to all federal, state and local government web resources and services.